Location: Pine Mountain Observatory
(43.7910°N, 120.9377°W)
Time: 09:59:09
(UTC-07:00)

Explorer 11/Cluster Stage 4 - Pass Details

Date: 01 June 2019
Orbit: 467 x 1260 km, 28.8° (Epoch: 19 June)

Event Time Altitude Azimuth Distance (km) Brightness Sun altitude
Rises 01:41:51 0° 240° (WSW) 4,095 - -23.5°
Reaches altitude 10° 01:45:32 10° 227° (SW) 3,038 - -23.4°
Maximum altitude 01:51:03 22° 180° (S) 2,086 - -23.2°
Drops below altitude 10° 01:55:55 10° 131° (SE) 2,642 - -23.0°
Exits shadow 01:57:21 - 123° (ESE) 3,007 9.4 -22.9°
Sets 01:58:52 0° 117° (ESE) 3,440 9.8 -22.9°
